Location: Unspecified
(0.0000°N, 0.0000°E)
Time: 00:01:10
(UTC+00:00)

N. Korean satellite - Pass Details

Date: 16 July 2019
Orbit: 456 x 506 km, 97.2° (Epoch: 18 November)

Event Time Altitude Azimuth Distance (km) Brightness Sun altitude
Rises 04:50:26 0° 42° (NE) 2,593 11.4 -17.6°
Reaches altitude 10° 04:53:17 10° 67° (ENE) 1,716 10.7 -16.9°
Maximum altitude 04:55:22 15° 101° (ESE) 1,453 9.8 -16.4°
Drops below altitude 10° 04:57:28 10° 136° (SE) 1,721 9.6 -15.9°
Sets 05:00:19 0° 160° (SSE) 2,607 10.3 -15.3°
